Location: ????????
(60.4333°N, 46.4710°E)
Time: 04:43:42
(UTC+00:00)

Cosmos 1356 - Pass Details

Date: 25 November 2020
Orbit: 441 x 444 km, 81.1° (Epoch: 19 January)

Event Time Altitude Azimuth Distance (km) Brightness Sun altitude
Rises 13:24:05 0° 346° (NNW) 2,455 7.0 -9.1°
Reaches altitude 10° 13:26:18 10° 356° (N) 1,580 5.9 -9.3°
Maximum altitude 13:29:27 33° 63° (ENE) 779 4.1 -9.7°
Drops below altitude 10° 13:32:36 10° 129° (SE) 1,571 5.9 -10.0°
Sets 13:34:47 0° 139° (SE) 2,438 7.0 -10.3°
